Location: Unspecified
(0.0000°N, 0.0000°E)
Time: 03:27:43
(UTC+00:00)

STARLINK-1273 - Pass Details

Date: 17 February 2026
Orbit: 434 x 436 km, 53.1° (Epoch: 6 March)

Event Time Altitude Azimuth Distance (km) Brightness Sun altitude
Rises 19:27:04 0° 300° (WNW) 2,417 7.7 -17.9°
Reaches altitude 10° 19:29:40 10° 280° (W) 1,548 6.9 -18.5°
Maximum altitude 19:32:06 18° 236° (SW) 1,153 6.1 -19.1°
Drops below altitude 10° 19:34:33 10° 191° (S) 1,549 6.2 -19.7°
Sets 19:37:09 0° 171° (S) 2,417 7.0 -20.3°
